Location: Kapuskasing
(49.3803°N, 82.4001°W)
Time: 06:12:04
(UTC-05:00)

ISS - Visible Passes

Search period start: 23 November 2017 00:00
Search period end: 03 December 2017 00:00
Orbit: 402 x 407 km, 51.6° (Epoch: 23 November)

Date Brightness Start Highest point End Pass type
(mag) Time Alt. Az. Time Alt. Az. Time Alt. Az.
27 Nov -0.9 19:18:09 10° SSW 19:18:37 13° SSW 19:18:37 13° SSW visible
28 Nov -2.1 18:26:24 10° SSW 18:28:36 21° SSE 18:28:36 21° SSE visible
29 Nov -1.5 17:35:13 10° SSE 17:36:50 13° SE 17:38:27 10° ESE visible
29 Nov -1.8 19:09:32 10° SW 19:11:10 26° SW 19:11:10 26° SW visible
30 Nov -3.1 18:17:24 10° SW 18:20:28 38° SSE 18:21:00 36° SE visible
30 Nov -0.2 19:53:36 10° W 19:53:39 10° W 19:53:39 10° W visible
01 Dec -2.3 17:25:30 10° SSW 17:28:15 25° SE 17:30:46 11° E visible
01 Dec -2.5 19:01:10 10° WSW 19:03:25 41° WSW 19:03:25 41° WSW visible
02 Dec -3.8 18:08:48 10° WSW 18:12:04 69° SSE 18:13:09 38° E visible
02 Dec -0.4 19:45:24 10° W 19:45:47 13° W 19:45:47 13° W visible
